Weather History for Gillette, WY

Change the Weather History Date:

Tuesday, November 12, 2013

  Actual Average Record
Temperature  
Mean Temperature 43 °F 34 °F  
Max Temperature 61 °F 47 °F 75 °F (1999)
Min Temperature 25 °F 22 °F -14 °F (1986)
Degree Days  
Heating Degree Days 22 30  
Month to date heating degree days 325 336  
Since 1 July heating degree days 1143 1245  
Cooling Degree Days 0 0  
Month to date cooling degree days 0 0  
Year to date cooling degree days 615 502  
Moisture  
Dew Point 26 °F    
Average Humidity 65    
Maximum Humidity 100    
Minimum Humidity 29    
Precipitation  
Precipitation 0.00 in 0.03 in 0.44 in (1959)
Month to date precipitation 0.03 0.27  
Year to date precipitation 18.59 13.21  
Sea Level Pressure  
Sea Level Pressure 30.42 in    
Wind  
Wind Speed 10 mph (South)    
Max Wind Speed 26 mph    
Max Gust Speed 32 mph    
Visibility 10 miles    
Events      
T = Trace of Precipitation, MM = Missing Value Source: NWS Daily Summary

Daily Weather History Graph

Daily Weather History Graph

Search for Another Location

Airport:

Trip Planner

Search our weather history database for the weather conditions in past years. The results will help you decide how hot, cold, wet, or windy it might be!

Date:

Astronomy

Nov. 12, 2013 Rise Set
Actual Time 6:54 AM MST 4:37 PM MST
Civil Twilight 6:23 AM MST 5:08 PM MST
Nautical Twilight 5:48 AM MST 5:43 PM MST
Astronomical Twilight 5:14 AM MST 6:17 PM MST
Moon 2:03 PM MST (11/12) 1:36 AM MST (11/12)
Length of Visible Light 10h 45m
Length of Day
9h 43m
Waxing Gibbous, 77% of the Moon is Illuminated
Nov 12
Waxing Gibbous
Nov 17
Full
Nov 25
Last Quarter
Dec 2
New
Dec 9
First Quarter

Hourly Weather History & Observations

Time (MST) Temp. Windchill Dew Point Humidity Pressure Visibility Wind Dir Wind Speed Gust Speed Precip Events Conditions
12:11 AM 28.4 °F 17.5 °F 26.6 °F 93% 30.52 in 8.0 mi South 13.8 mph - N/A   Scattered Clouds
12:53 AM 27.0 °F 14.7 °F 26.1 °F 96% 30.63 in 4.0 mi South 16.1 mph - N/A   Mostly Cloudy
1:53 AM 26.1 °F 16.2 °F 25.0 °F 96% 30.63 in 8.0 mi SSE 10.4 mph - N/A   Mostly Cloudy
2:19 AM 26.6 °F 14.7 °F 24.8 °F 93% 30.51 in 7.0 mi South 15.0 mph - N/A   Partly Cloudy
2:53 AM 26.1 °F 13.1 °F 23.0 °F 88% 30.62 in 9.0 mi South 17.3 mph - N/A   Clear
3:53 AM 26.1 °F 14.0 °F 23.0 °F 88% 30.61 in 10.0 mi SSE 15.0 mph - N/A   Clear
4:53 AM 27.0 °F 17.3 °F 23.0 °F 85% 30.59 in 10.0 mi South 10.4 mph - N/A   Clear
5:53 AM 28.0 °F 20.8 °F 23.0 °F 81% 30.58 in 10.0 mi ESE 6.9 mph - N/A   Clear
6:53 AM 28.9 °F 22.8 °F 24.1 °F 82% 30.56 in 10.0 mi SSE 5.8 mph - N/A   Clear
7:53 AM 32.0 °F 21.6 °F 27.0 °F 82% 30.55 in 10.0 mi SSE 15.0 mph - N/A   Clear
8:53 AM 33.1 °F 27.7 °F 27.0 °F 78% 30.55 in 10.0 mi ESE 5.8 mph - N/A   Clear
9:53 AM 42.1 °F 35.2 °F 33.1 °F 70% 30.50 in 10.0 mi SSE 12.7 mph - N/A   Clear
10:53 AM 52.0 °F - 39.0 °F 61% 30.43 in 10.0 mi South 12.7 mph - N/A   Clear
11:53 AM 59.0 °F - 32.0 °F 36% 30.36 in 10.0 mi South 24.2 mph 31.1 mph N/A   Clear
12:53 PM 60.1 °F - 30.0 °F 32% 30.33 in 10.0 mi South 19.6 mph 28.8 mph N/A   Clear
1:53 PM 61.0 °F - 28.0 °F 29% 30.32 in 10.0 mi SSW 18.4 mph - N/A   Clear
2:53 PM 61.0 °F - 28.9 °F 30% 30.31 in 10.0 mi South 12.7 mph 23.0 mph N/A   Clear
3:53 PM 57.0 °F - 28.9 °F 34% 30.28 in 10.0 mi South 10.4 mph - N/A   Clear
4:53 PM 50.0 °F - 28.0 °F 43% 30.28 in 10.0 mi South 11.5 mph - N/A   Clear
5:53 PM 43.0 °F 37.2 °F 27.0 °F 53% 30.30 in 10.0 mi SSE 10.4 mph - N/A   Clear
6:53 PM 45.0 °F 42.6 °F 26.1 °F 48% 30.28 in 10.0 mi ESE 4.6 mph - N/A   Clear
7:53 PM 46.0 °F - 24.1 °F 42% 30.28 in 10.0 mi Calm Calm - N/A   Clear
8:53 PM 46.9 °F - 23.0 °F 39% 30.27 in 10.0 mi WSW 4.6 mph - N/A   Clear
9:53 PM 37.9 °F 35.5 °F 24.1 °F 57% 30.25 in 10.0 mi SSW 3.5 mph - N/A   Clear
10:53 PM 45.0 °F 43.5 °F 19.9 °F 37% 30.18 in 10.0 mi Variable 3.5 mph - N/A   Clear
11:53 PM 46.9 °F - 19.0 °F 33% 30.15 in 10.0 mi Calm Calm - N/A   Clear